sat.trackr.live / text

‹ back to catalog

STARLINK-4327

NORAD 53079 · 2022-077AN

PAYLOAD ACTIVE UNKNOWN

§ Identity

Operator
Country
US
Launch date
2022-07-11
Launch site
AFWTR
Launch vehicle
Mass (kg)
RCS (m²)

Purposes: comms

External: N2YO · Heavens-Above · Gunter

§ Orbital elements

Epoch: 2026-05-25T02:29:00.647808Z

Period
95.64 min
Inclination
97.4459°
Eccentricity
0.0001419
Mean motion
15.05646343 rev/d
Perigee alt
548.5 km
Apogee alt
550.5 km
Semi-major
6,927.7 km
B*
8.2971e-5
RAAN
326.1695°
Arg perigee
91.1251°
Mean anomaly
269.0138°
Rev number
21,248

§ Raw data

STARLINK-43271 53079U 22077AN  26145.10347972  .00001139  00000+0  82971-4 0  99972 53079  97.4459 326.1695 0001419  91.1251 269.0138 15.05646343212483

JSON: /api/v1/satellites/53079 · /tle

For live sub-satellite position, see the globe view (requires WebGL).

§ Visibility from observer

Set your observer location to see the next 7 days of passes ≥ 10°. The values pass through the URL so the page stays shareable.

No JS? Fill the form by hand. The geolocation button needs JavaScript.